Cloud_Cover
35 6 0 0 0 0 3 1 0 0 0 0 0 0 0 0 4 43 2 22 37 0 10 1 21 38 5 62 24 10 0 0 91
100 8 0 0 0 1 0 2 5 0 3 0 0 0 0 0 0 34 44 31 67 39 12 20 43 75 5 49 100 79 47 18 28
31 9 4 0 0 0 0 3 5 3 9 0 0 0 0 0 0 7 42 53 35 10 10 34 36 3 0 0 23 79 67 16 100
5 5 5 73 41 3 5 4 5 5 5 3 0 1 4 5 0 0 39 0 10 1 0 17 0 0 0 55 53 100 0 5 46
30 10 65 100 6 4 0 3 5 23 56 73 100 100 22 89 5 0 28 4 58 0 0 14 0 0 0 15 34 78 4 98 100
90 27 100 56 6 5 5 5 5 14 86 100 100 100 100 18 5 2 5 0 0 22 81 11 1 1 0 55 14 8 21 98 93
96 100 93 87 98 97 12 20 23 69 90 100 100 89 5 5 5 5 1 22 24 62 16 9 0 2 0 16 52 53 100 89 26
85 96 100 80 93 77 59 82 100 91 87 84 50 5 5 5 5 0 46 97 62 91 61 85 0 0 0 0 2 31 100 55 95
77 60 93 100 100 100 100 100 99 23 58 60 21 45 26 45 5 80 99 100 100 55 100 13 0 0 8 39 11 89 100 45 18
100 100 100 100 100 100 100 76 58 52 66 41 64 54 93 58 18 80 100 100 58 100 93 31 2 0 35 50 3 98 91 56 25
100 100 100 100 100 100 100 91 47 69 83 67 99 91 79 100 60 97 100 99 74 46 2 5 0 27 87 85 6 68 100 100 54
79 100 100 100 100 100 100 78 99 99 65 100 100 100 84 38 100 13 94 100 100 33 0 0 0 6 44 65 0 5 100 100 98
96 95 100 100 100 100 100 100 100 100 100 100 100 71 16 26 100 78 16 52 100 62 0 0 70 95 14 73 2 5 5 100 100
100 63 92 100 100 100 100 100 100 100 100 100 100 86 53 27 8 1 16 46 83 100 0 0 21 4 20 82 72 5 5 100 100
100 88 98 100 100 100 100 100 100 100 100 99 100 90 70 91 45 33 11 1 100 100 100 74 2 0 96 73 73 5 5 6 99
100 100 100 100 100 100 100 100 100 100 68 54 100 100 100 100 100 100 75 71 100 100 100 100 95 17 23 7 76 46 5 5 81
100 100 100 100 100 100 100 100 92 98 82 100 54 99 60 100 88 100 100 99 89 69 81 100 96 100 73 52 6 40 26 14 70
100 100 100 100 51 48 99 99 77 82 88 99 56 86 84 0 20 93 100 100 89 100 100 100 78 73 100 100 69 5 99 77 82
100 43 57 91 74 67 92 98 32 5 82 31 100 56 0 0 0 37 57 75 100 100 100 99 100 56 93 93 100 18 100 97 48
100 100 100 100 100 100 97 73 5 0 0 0 6 100 54 0 0 0 16 98 86 100 100 100 91 100 100 84 100 92 91 93 100